This is the latest recevied weather packets stored in our database for station/object W8RSN-13. If no packets are shown the sender has not sent any weather packets the latest 10 day(s).
| Time | Temp. | Humidity | Pressure | Rain* | Wind** | Luminosity | Snow |
|---|---|---|---|---|---|---|---|
| 1788275975 | 20.56° C | 61% | 1017.7 hPa | - | - | - | - |
| 1788275675 | 20° C | 61% | 1017.7 hPa | - | - | - | - |
| 1788275374 | 19.44° C | 63% | 1017.6 hPa | - | - | - | - |
| 1788275073 | 19.44° C | 63% | 1017.7 hPa | - | - | - | - |
| 1788274772 | 19.44° C | 64% | 1017.6 hPa | - | - | - | - |
| 1788274471 | 19.44° C | 63% | 1017.5 hPa | - | - | - | - |
| 1788274170 | 18.89° C | 63% | 1017.7 hPa | - | - | - | - |
| 1788273869 | 18.89° C | 63% | 1017.5 hPa | - | - | - | - |
| 1788273568 | 18.89° C | 63% | 1017.5 hPa | - | - | - | - |
| 1788273268 | 18.33° C | 62% | 1017.3 hPa | - | - | - | - |
| 1788272967 | 17.78° C | 64% | 1017.4 hPa | - | - | - | - |
| 1788272666 | 17.78° C | 66% | 1017.4 hPa | - | - | - | - |
| 1788272365 | 17.22° C | 67% | 1017.3 hPa | - | - | - | - |
| 1788272064 | 17.22° C | 68% | 1017.3 hPa | - | - | - | - |
| 1788271763 | 16.67° C | 70% | 1017.3 hPa | - | - | - | - |
| 1788271462 | 16.67° C | 71% | 1017.2 hPa | - | - | - | - |
| 1788271161 | 16.11° C | 70% | 1017.1 hPa | - | - | - | - |
| 1788270861 | 16.11° C | 72% | 1016.8 hPa | - | - | - | - |
| 1788270560 | 16.11° C | 70% | 1016.7 hPa | - | - | - | - |
| 1788270259 | 16.11° C | 71% | 1016.6 hPa | - | - | - | - |
| 1788269958 | 16.11° C | 71% | 1016.7 hPa | - | - | - | - |
| 1788269657 | 16.11° C | 72% | 1016.6 hPa | - | - | - | - |
| 1788269356 | 16.11° C | 73% | 1016.4 hPa | - | - | - | - |
| 1788269076 | 15.56° C | 72% | 1016.3 hPa | - | - | - | - |
| 1788268774 | 15.56° C | 74% | 1016.5 hPa | - | - | - | - |
* Rain since midnight (hover to see other rain measurements)
** Current wind speed in m/s (hover to see current wind gust speed)